E22ZMG-1 Weather Reports


time (UTC)temp
C
wind
direction
speed
KPH
gust
KPH
rain 1hr
cm
rain 24hr
cm
rain mn
cm
humidity
%
barometer
mb
20260504205852 32 0 0.0 0.0 0.00 0.00 0.00 59 976.0
20260504204827 32 0 0.0 0.0 0.00 0.00 0.00 59 976.0
20260504203803 31 0 0.0 0.0 0.00 0.00 0.00 59 976.0
20260504202737 31 0 0.0 0.0 0.00 0.00 0.00 59 976.0
20260504201712 31 0 0.0 0.0 0.00 0.00 0.00 61 976.0
20260504200646 32 0 0.0 0.0 0.00 0.00 0.00 59 976.0
20260504195620 31 0 0.0 0.0 0.00 0.00 0.00 60 976.0
20260504194551 32 0 0.0 0.0 0.00 0.00 0.00 59 977.0
20260504193524 33 0 0.0 0.0 0.00 0.00 0.00 56 977.0
20260504192310 33 0 0.0 0.0 0.00 0.00 0.00 55 977.0
20260504191245 32 0 0.0 0.0 0.00 0.00 0.00 54 977.0
20260504190219 32 0 0.0 0.0 0.00 0.00 0.00 54 977.0
20260504185154 32 0 0.0 0.0 0.00 0.00 0.00 55 977.0
20260504184129 32 0 0.0 0.0 0.00 0.00 0.00 56 977.0
20260504183103 33 0 0.0 0.0 0.00 0.00 0.00 54 977.0
20260504182039 32 0 0.0 0.0 0.00 0.00 0.00 56 977.0
20260504181014 31 0 0.0 0.0 0.00 0.00 0.00 57 977.0
20260504175948 33 0 0.0 0.0 0.00 0.00 0.00 56 977.0
20260504174923 33 0 0.0 0.0 0.00 0.00 0.00 57 977.0
20260504173857 32 0 0.0 0.0 0.00 0.00 0.00 58 977.0
20260504172832 33 0 0.0 0.0 0.00 0.00 0.00 56 977.0
20260504171808 33 0 0.0 0.0 0.00 0.00 0.00 56 977.0
20260504170743 33 0 0.0 0.0 0.00 0.00 0.00 57 977.0
20260504150235 32 0 0.0 0.0 0.00 0.00 0.00 47 975.0
20260504141025 31 0 0.0 0.0 0.00 0.00 0.00 44 974.0
20260504130427 34 0 0.0 0.0 0.00 0.00 0.00 41 973.0
20260504120155 39 0 0.0 0.0 0.00 0.00 0.00 32 972.0
20260504081233 43 0 0.0 0.0 0.00 0.00 0.00 22 972.0
20260504080208 43 0 0.0 0.0 0.00 0.00 0.00 21 972.0
20260504045911 42 0 0.0 0.0 0.00 0.00 0.00 27 975.0
20260504044847 41 0 0.0 0.0 0.00 0.00 0.00 28 975.0
20260504043821 41 0 0.0 0.0 0.00 0.00 0.00 28 976.0
20260504042756 40 0 0.0 0.0 0.00 0.00 0.00 30 976.0
20260504041731 40 0 0.0 0.0 0.00 0.00 0.00 30 976.0
20260504040707 40 0 0.0 0.0 0.00 0.00 0.00 31 976.0
20260504035640 40 0 0.0 0.0 0.00 0.00 0.00 30 976.0
20260504034615 40 0 0.0 0.0 0.00 0.00 0.00 31 976.0
20260504033628 39 0 0.0 0.0 0.00 0.00 0.00 32 976.0
20260504032524 39 0 0.0 0.0 0.00 0.00 0.00 32 976.0
20260504031458 38 0 0.0 0.0 0.00 0.00 0.00 33 976.0
20260504030433 38 0 0.0 0.0 0.00 0.00 0.00 35 976.0
20260504025407 37 0 0.0 0.0 0.00 0.00 0.00 36 977.0
20260504024343 36 0 0.0 0.0 0.00 0.00 0.00 37 977.0
20260504023318 36 0 0.0 0.0 0.00 0.00 0.00 37 977.0
20260504022252 36 0 0.0 0.0 0.00 0.00 0.00 39 977.0
20260504021226 35 0 0.0 0.0 0.00 0.00 0.00 41 977.0
20260504020201 35 0 0.0 0.0 0.00 0.00 0.00 41 977.0
20260504015136 35 0 0.0 0.0 0.00 0.00 0.00 42 977.0
20260504014110 33 0 0.0 0.0 0.00 0.00 0.00 44 977.0
20260504013045 33 0 0.0 0.0 0.00 0.00 0.00 45 977.0
20260504012018 32 0 0.0 0.0 0.00 0.00 0.00 48 977.0
20260504010953 32 0 0.0 0.0 0.00 0.00 0.00 47 976.0
20260504005929 32 0 0.0 0.0 0.00 0.00 0.00 47 976.0
20260504004904 32 0 0.0 0.0 0.00 0.00 0.00 46 976.0
20260504003839 32 0 0.0 0.0 0.00 0.00 0.00 48 976.0
20260504002815 31 0 0.0 0.0 0.00 0.00 0.00 49 976.0
20260504001750 32 0 0.0 0.0 0.00 0.00 0.00 47 976.0
20260504000725 31 0 0.0 0.0 0.00 0.00 0.00 48 976.0
20260503235659 31 0 0.0 0.0 0.00 0.00 0.00 50 976.0
20260503234633 31 0 0.0 0.0 0.00 0.00 0.00 50 976.0
20260503233608 30 0 0.0 0.0 0.00 0.00 0.00 52 976.0
20260503232543 31 0 0.0 0.0 0.00 0.00 0.00 50 975.0
20260503231518 30 0 0.0 0.0 0.00 0.00 0.00 51 975.0
20260503230453 31 0 0.0 0.0 0.00 0.00 0.00 50 975.0
20260503225427 32 0 0.0 0.0 0.00 0.00 0.00 48 975.0
20260503224401 32 0 0.0 0.0 0.00 0.00 0.00 49 975.0
20260503223337 32 0 0.0 0.0 0.00 0.00 0.00 49 975.0
20260503222310 31 0 0.0 0.0 0.00 0.00 0.00 51 975.0
20260503221245 31 0 0.0 0.0 0.00 0.00 0.00 51 975.0
20260503220220 32 0 0.0 0.0 0.00 0.00 0.00 50 975.0
20260503215154 32 0 0.0 0.0 0.00 0.00 0.00 50 974.0
20260503214128 32 0 0.0 0.0 0.00 0.00 0.00 49 974.0
20260503213102 32 0 0.0 0.0 0.00 0.00 0.00 50 974.0
20260503212038 33 0 0.0 0.0 0.00 0.00 0.00 48 974.0
20260503211012 33 0 0.0 0.0 0.00 0.00 0.00 48 974.0